Time,TemperatureF,DewpointF,PressureIn,WindDirection,WindDirectionDegrees,WindSpeedMPH,WindSpeedGustMPH,Humidity,HourlyPrecipIn,Conditions,Clouds,dailyrainin,SoftwareType,DateUTC
2013-01-02 00:02:00,10.0,4.0,-100.00,West,275,5.0,6.0,76,-99.99,,,-99.99,,2013-01-02 06:02:00,
2013-01-02 00:12:00,10.0,5.0,-100.00,NW,305,4.0,5.0,77,-99.99,,,-99.99,,2013-01-02 06:12:00,
2013-01-02 00:22:00,10.0,4.0,-100.00,WNW,285,4.0,5.0,77,-99.99,,,-99.99,,2013-01-02 06:22:00,
2013-01-02 00:32:00,10.0,4.0,-100.00,WNW,285,4.0,4.0,77,-99.99,,,-99.99,,2013-01-02 06:32:00,
2013-01-02 00:42:00,10.0,4.0,-100.00,WNW,285,4.0,4.0,77,-99.99,,,-99.99,,2013-01-02 06:42:00,
2013-01-02 00:53:00,10.0,4.0,-100.00,NW,310,3.0,4.0,77,-99.99,,,-99.99,,2013-01-02 06:53:00,
2013-01-02 01:02:00,10.0,4.0,-100.00,NW,310,3.0,4.0,77,-99.99,,,-99.99,,2013-01-02 07:02:00,
2013-01-02 01:12:00,10.0,5.0,-100.00,NW,310,4.0,5.0,78,-99.99,,,-99.99,,2013-01-02 07:12:00,
2013-01-02 01:22:00,9.0,4.0,-100.00,West,280,4.0,4.0,78,-99.99,,,-99.99,,2013-01-02 07:22:00,
2013-01-02 01:32:00,9.0,4.0,-100.00,West,280,4.0,4.0,78,-99.99,,,-99.99,,2013-01-02 07:32:00,
2013-01-02 01:42:00,9.0,4.0,-100.00,West,275,4.0,6.0,78,-99.99,,,-99.99,,2013-01-02 07:42:00,
2013-01-02 01:52:00,9.0,4.0,-100.00,West,280,4.0,5.0,78,-99.99,,,-99.99,,2013-01-02 07:52:00,
2013-01-02 02:02:00,9.0,4.0,-100.00,West,280,4.0,5.0,78,-99.99,,,-99.99,,2013-01-02 08:02:00,
2013-01-02 02:12:00,9.0,4.0,-100.00,WNW,285,5.0,5.0,79,-99.99,,,-99.99,,2013-01-02 08:12:00,
2013-01-02 02:22:00,9.0,4.0,-100.00,West,275,4.0,4.0,79,-99.99,,,-99.99,,2013-01-02 08:22:00,
2013-01-02 02:32:00,9.0,4.0,-100.00,WSW,245,4.0,6.0,79,-99.99,,,-99.99,,2013-01-02 08:32:00,
2013-01-02 02:42:00,9.0,4.0,-100.00,WSW,245,4.0,6.0,79,-99.99,,,-99.99,,2013-01-02 08:42:00,
2013-01-02 02:53:00,9.0,4.0,-100.00,SW,230,3.0,4.0,79,-99.99,,,-99.99,,2013-01-02 08:53:00,
2013-01-02 03:02:00,9.0,4.0,-100.00,SW,230,3.0,4.0,79,-99.99,,,-99.99,,2013-01-02 09:02:00,
2013-01-02 03:12:00,9.0,4.0,-100.00,SW,220,4.0,4.0,79,-99.99,,,-99.99,,2013-01-02 09:12:00,
2013-01-02 03:22:00,9.0,4.0,-100.00,SW,225,3.0,4.0,80,-99.99,,,-99.99,,2013-01-02 09:22:00,
2013-01-02 03:32:00,9.0,4.0,-100.00,SW,220,4.0,4.0,80,-99.99,,,-99.99,,2013-01-02 09:32:00,
2013-01-02 03:43:00,9.0,4.0,-100.00,SW,220,4.0,4.0,80,-99.99,,,-99.99,,2013-01-02 09:43:00,
2013-01-02 03:53:00,9.0,4.0,-100.00,SW,225,4.0,6.0,81,-99.99,,,-99.99,,2013-01-02 09:53:00,
2013-01-02 04:02:00,9.0,4.0,-100.00,SW,225,4.0,6.0,81,-99.99,,,-99.99,,2013-01-02 10:02:00,
2013-01-02 04:12:00,9.0,5.0,-100.00,SW,215,4.0,6.0,81,-99.99,,,-99.99,,2013-01-02 10:12:00,
2013-01-02 04:22:00,10.0,5.0,-100.00,SSW,200,4.0,4.0,80,-99.99,,,-99.99,,2013-01-02 10:22:00,
2013-01-02 04:32:00,10.0,5.0,-100.00,SSW,195,6.0,6.0,79,-99.99,,,-99.99,,2013-01-02 10:32:00,
2013-01-02 04:42:00,10.0,5.0,-100.00,SSW,195,6.0,6.0,79,-99.99,,,-99.99,,2013-01-02 10:42:00,
2013-01-02 04:52:00,9.0,4.0,-100.00,SSW,200,6.0,7.0,79,-99.99,,,-99.99,,2013-01-02 10:52:00,
2013-01-02 05:02:00,9.0,4.0,-100.00,SSW,200,6.0,7.0,79,-99.99,,,-99.99,,2013-01-02 11:02:00,
2013-01-02 05:12:00,9.0,4.0,-100.00,South,190,6.0,6.0,79,-99.99,,,-99.99,,2013-01-02 11:12:00,
2013-01-02 05:22:00,9.0,4.0,-100.00,South,180,5.0,6.0,79,-99.99,,,-99.99,,2013-01-02 11:22:00,
2013-01-02 05:32:00,7.0,2.0,-100.00,South,180,6.0,6.0,80,-99.99,,,-99.99,,2013-01-02 11:32:00,
2013-01-02 05:42:00,7.0,2.0,-100.00,South,180,6.0,6.0,80,-99.99,,,-99.99,,2013-01-02 11:42:00,
2013-01-02 05:53:00,8.0,4.0,-100.00,South,185,4.0,8.0,81,-99.99,,,-99.99,,2013-01-02 11:53:00,
2013-01-02 06:02:00,8.0,4.0,-100.00,South,185,4.0,8.0,81,-99.99,,,-99.99,,2013-01-02 12:02:00,
2013-01-02 06:12:00,7.0,3.0,-100.00,South,175,4.0,7.0,82,-99.99,,,-99.99,,2013-01-02 12:12:00,
2013-01-02 06:22:00,7.0,3.0,-100.00,South,185,7.0,9.0,82,-99.99,,,-99.99,,2013-01-02 12:22:00,
2013-01-02 06:33:00,7.0,2.0,-100.00,SSW,200,6.0,8.0,82,-99.99,,,-99.99,,2013-01-02 12:33:00,
2013-01-02 06:42:00,7.0,2.0,-100.00,SSW,200,6.0,8.0,82,-99.99,,,-99.99,,2013-01-02 12:42:00,
2013-01-02 06:53:00,7.0,3.0,-100.00,SSW,195,8.0,9.0,83,-99.99,,,-99.99,,2013-01-02 12:53:00,
2013-01-02 07:02:00,7.0,3.0,-100.00,SSW,195,8.0,9.0,83,-99.99,,,-99.99,,2013-01-02 13:02:00,
2013-01-02 07:12:00,7.0,3.0,-100.00,SSW,210,9.0,11.0,84,-99.99,,,-99.99,,2013-01-02 13:12:00,
2013-01-02 07:22:00,7.0,3.0,-100.00,SSW,210,10.0,11.0,84,-99.99,,,-99.99,,2013-01-02 13:22:00,
2013-01-02 07:32:00,7.0,3.0,-100.00,SSW,210,10.0,11.0,84,-99.99,,,-99.99,,2013-01-02 13:32:00,
2013-01-02 07:43:00,8.0,4.0,-100.00,SW,215,10.0,12.0,84,-99.99,,,-99.99,,2013-01-02 13:43:00,
2013-01-02 07:52:00,8.0,4.0,-100.00,SSW,205,11.0,11.0,84,-99.99,,,-99.99,,2013-01-02 13:52:00,
2013-01-02 08:02:00,8.0,4.0,-100.00,SSW,205,11.0,11.0,84,-99.99,,,-99.99,,2013-01-02 14:02:00,
2013-01-02 08:12:00,9.0,5.0,-100.00,SSW,205,14.0,16.0,84,-99.99,,,-99.99,,2013-01-02 14:12:00,
2013-01-02 08:22:00,9.0,5.0,-100.00,SSW,205,11.0,17.0,82,-99.99,,,-99.99,,2013-01-02 14:22:00,
2013-01-02 08:33:00,9.0,5.0,-100.00,SSW,205,11.0,17.0,82,-99.99,,,-99.99,,2013-01-02 14:33:00,
2013-01-02 08:43:00,10.0,5.0,-100.00,SSW,210,13.0,16.0,80,-99.99,,,-99.99,,2013-01-02 14:43:00,
2013-01-02 08:53:00,11.0,6.0,-100.00,SSW,210,14.0,18.0,79,-99.99,,,-99.99,,2013-01-02 14:53:00,
2013-01-02 09:03:00,11.0,6.0,-100.00,SSW,210,14.0,18.0,79,-99.99,,,-99.99,,2013-01-02 15:03:00,
2013-01-02 09:12:00,13.0,7.0,-100.00,SSW,205,14.0,19.0,78,-99.99,,,-99.99,,2013-01-02 15:12:00,
2013-01-02 09:22:00,14.0,8.0,-100.00,SSW,210,15.0,20.0,76,-99.99,,,-99.99,,2013-01-02 15:22:00,
2013-01-02 09:33:00,15.0,8.0,-100.00,SSW,210,16.0,20.0,75,-99.99,,,-99.99,,2013-01-02 15:33:00,
2013-01-02 09:43:00,15.0,8.0,-100.00,SSW,210,16.0,20.0,75,-99.99,,,-99.99,,2013-01-02 15:43:00,
2013-01-02 09:53:00,16.0,9.0,-100.00,SW,215,16.0,24.0,73,-99.99,,,-99.99,,2013-01-02 15:53:00,
2013-01-02 10:03:00,16.0,9.0,-100.00,SW,215,16.0,24.0,73,-99.99,,,-99.99,,2013-01-02 16:03:00,
2013-01-02 10:13:00,17.0,9.0,-100.00,SSW,210,19.0,22.0,72,-99.99,,,-99.99,,2013-01-02 16:13:00,
2013-01-02 10:22:00,18.0,10.0,-100.00,SSW,210,18.0,22.0,70,-99.99,,,-99.99,,2013-01-02 16:22:00,
2013-01-02 10:33:00,19.0,10.0,-100.00,SSW,210,15.0,20.0,68,-99.99,,,-99.99,,2013-01-02 16:33:00,
2013-01-02 10:43:00,19.0,10.0,-100.00,SSW,210,15.0,20.0,68,-99.99,,,-99.99,,2013-01-02 16:43:00,
2013-01-02 10:53:00,20.0,11.0,-100.00,SW,215,14.0,19.0,67,-99.99,,,-99.99,,2013-01-02 16:53:00,
2013-01-02 11:03:00,20.0,11.0,-100.00,SW,215,14.0,19.0,67,-99.99,,,-99.99,,2013-01-02 17:03:00,
2013-01-02 11:13:00,21.0,11.0,-100.00,SSW,210,15.0,22.0,65,-99.99,,,-99.99,,2013-01-02 17:13:00,
2013-01-02 11:23:00,22.0,12.0,-100.00,SSW,210,14.0,20.0,65,-99.99,,,-99.99,,2013-01-02 17:23:00,
2013-01-02 11:33:00,22.0,12.0,-100.00,SSW,210,14.0,20.0,65,-99.99,,,-99.99,,2013-01-02 17:33:00,
2013-01-02 11:43:00,22.0,13.0,-100.00,SSW,210,17.0,20.0,65,-99.99,,,-99.99,,2013-01-02 17:43:00,
2013-01-02 11:53:00,24.0,14.0,-100.00,SW,215,15.0,22.0,66,-99.99,,,-99.99,,2013-01-02 17:53:00,
2013-01-02 12:03:00,24.0,14.0,-100.00,SW,215,15.0,22.0,66,-99.99,,,-99.99,,2013-01-02 18:03:00,
2013-01-02 12:12:00,24.0,14.0,-100.00,SW,220,17.0,24.0,66,-99.99,,,-99.99,,2013-01-02 18:12:00,
2013-01-02 12:22:00,25.0,15.0,-100.00,SW,225,17.0,24.0,67,-99.99,,,-99.99,,2013-01-02 18:22:00,
2013-01-02 12:33:00,25.0,15.0,-100.00,SW,225,17.0,24.0,67,-99.99,,,-99.99,,2013-01-02 18:33:00,
2013-01-02 12:43:00,25.0,16.0,-100.00,SW,220,18.0,22.0,67,-99.99,,,-99.99,,2013-01-02 18:43:00,
2013-01-02 12:53:00,26.0,16.0,-100.00,SW,225,15.0,19.0,67,-99.99,,,-99.99,,2013-01-02 18:53:00,
2013-01-02 13:03:00,26.0,16.0,-100.00,SW,225,15.0,19.0,67,-99.99,,,-99.99,,2013-01-02 19:03:00,
2013-01-02 13:12:00,26.0,17.0,-100.00,SSW,210,16.0,21.0,68,-99.99,,,-99.99,,2013-01-02 19:12:00,
2013-01-02 13:23:00,26.0,17.0,-100.00,SSW,210,16.0,22.0,68,-99.99,,,-99.99,,2013-01-02 19:23:00,
2013-01-02 13:33:00,27.0,18.0,-100.00,SW,215,18.0,21.0,68,-99.99,,,-99.99,,2013-01-02 19:33:00,
2013-01-02 13:43:00,27.0,18.0,-100.00,SW,215,18.0,21.0,68,-99.99,,,-99.99,,2013-01-02 19:43:00,
2013-01-02 13:53:00,28.0,19.0,-100.00,SW,220,14.0,23.0,67,-99.99,,,-99.99,,2013-01-02 19:53:00,
2013-01-02 14:03:00,28.0,19.0,-100.00,SW,220,14.0,23.0,67,-99.99,,,-99.99,,2013-01-02 20:03:00,
2013-01-02 14:12:00,28.0,19.0,-100.00,SW,215,14.0,20.0,67,-99.99,,,-99.99,,2013-01-02 20:12:00,
2013-01-02 14:23:00,29.0,19.0,-100.00,SSW,210,14.0,21.0,68,-99.99,,,-99.99,,2013-01-02 20:23:00,
2013-01-02 14:33:00,29.0,19.0,-100.00,SSW,210,14.0,21.0,68,-99.99,,,-99.99,,2013-01-02 20:33:00,
2013-01-02 14:42:00,29.0,20.0,-100.00,SW,215,14.0,19.0,67,-99.99,,,-99.99,,2013-01-02 20:42:00,
2013-01-02 14:53:00,29.0,20.0,-100.00,SSW,210,15.0,19.0,67,-99.99,,,-99.99,,2013-01-02 20:53:00,
2013-01-02 15:03:00,29.0,20.0,-100.00,SSW,210,15.0,19.0,67,-99.99,,,-99.99,,2013-01-02 21:03:00,
2013-01-02 15:13:00,29.0,20.0,-100.00,SW,220,15.0,20.0,67,-99.99,,,-99.99,,2013-01-02 21:13:00,
2013-01-02 15:22:00,30.0,20.0,-100.00,SSW,210,14.0,24.0,67,-99.99,,,-99.99,,2013-01-02 21:22:00,
2013-01-02 15:33:00,30.0,20.0,-100.00,SSW,210,14.0,24.0,67,-99.99,,,-99.99,,2013-01-02 21:33:00,
2013-01-02 15:43:00,30.0,20.0,-100.00,SW,215,15.0,19.0,68,-99.99,,,-99.99,,2013-01-02 21:43:00,
2013-01-02 15:53:00,30.0,20.0,-100.00,SSW,210,15.0,20.0,68,-99.99,,,-99.99,,2013-01-02 21:53:00,
2013-01-02 16:03:00,30.0,20.0,-100.00,SSW,210,15.0,20.0,68,-99.99,,,-99.99,,2013-01-02 22:03:00,
2013-01-02 16:12:00,30.0,21.0,-100.00,SSW,205,14.0,19.0,69,-99.99,,,-99.99,,2013-01-02 22:12:00,
2013-01-02 16:22:00,30.0,21.0,-100.00,SSW,210,15.0,19.0,69,-99.99,,,-99.99,,2013-01-02 22:22:00,
2013-01-02 16:32:00,30.0,21.0,-100.00,SSW,210,15.0,19.0,69,-99.99,,,-99.99,,2013-01-02 22:32:00,
2013-01-02 16:42:00,29.0,20.0,-100.00,SSW,195,15.0,23.0,68,-99.99,,,-99.99,,2013-01-02 22:42:00,
2013-01-02 16:53:00,29.0,20.0,-100.00,SSW,205,17.0,21.0,68,-99.99,,,-99.99,,2013-01-02 22:53:00,
2013-01-02 17:03:00,29.0,20.0,-100.00,SSW,205,17.0,21.0,68,-99.99,,,-99.99,,2013-01-02 23:03:00,
2013-01-02 17:12:00,28.0,19.0,-100.00,SSW,205,14.0,21.0,70,-99.99,,,-99.99,,2013-01-02 23:12:00,
2013-01-02 17:23:00,27.0,19.0,-100.00,SSW,210,14.0,18.0,71,-99.99,,,-99.99,,2013-01-02 23:23:00,
2013-01-02 17:33:00,27.0,19.0,-100.00,SSW,210,14.0,18.0,71,-99.99,,,-99.99,,2013-01-02 23:33:00,
2013-01-02 17:42:00,27.0,19.0,-100.00,SW,215,12.0,17.0,72,-99.99,,,-99.99,,2013-01-02 23:42:00,
2013-01-02 17:53:00,26.0,18.0,-100.00,SW,215,11.0,14.0,72,-99.99,,,-99.99,,2013-01-02 23:53:00,
2013-01-02 18:02:00,26.0,18.0,-100.00,SW,215,11.0,14.0,72,-99.99,,,-99.99,,2013-01-03 00:02:00,
2013-01-02 18:12:00,26.0,18.0,-100.00,SW,215,14.0,16.0,73,-99.99,,,-99.99,,2013-01-03 00:12:00,
2013-01-02 18:22:00,26.0,18.0,-100.00,SW,215,14.0,16.0,73,-99.99,,,-99.99,,2013-01-03 00:22:00,
2013-01-02 18:38:00,26.0,18.0,-100.00,SW,215,14.0,16.0,73,-99.99,,,-99.99,,2013-01-03 00:38:00,
2013-01-02 18:53:00,25.0,17.0,-100.00,SW,215,14.0,16.0,73,-99.99,,,-99.99,,2013-01-03 00:53:00,
2013-01-02 19:02:00,25.0,17.0,-100.00,SW,215,14.0,16.0,73,-99.99,,,-99.99,,2013-01-03 01:02:00,
2013-01-02 19:12:00,25.0,17.0,-100.00,SW,220,11.0,17.0,73,-99.99,,,-99.99,,2013-01-03 01:12:00,
2013-01-02 19:22:00,25.0,17.0,-100.00,SW,225,9.0,15.0,73,-99.99,,,-99.99,,2013-01-03 01:22:00,
2013-01-02 19:32:00,25.0,17.0,-100.00,SW,225,9.0,15.0,73,-99.99,,,-99.99,,2013-01-03 01:32:00,
2013-01-02 19:42:00,25.0,17.0,-100.00,SW,230,12.0,17.0,72,-99.99,,,-99.99,,2013-01-03 01:42:00,
2013-01-02 19:53:00,25.0,17.0,-100.00,SW,230,14.0,18.0,72,-99.99,,,-99.99,,2013-01-03 01:53:00,
2013-01-02 20:02:00,25.0,17.0,-100.00,SW,230,14.0,18.0,72,-99.99,,,-99.99,,2013-01-03 02:02:00,
2013-01-02 20:12:00,25.0,18.0,-100.00,SW,215,14.0,19.0,72,-99.99,,,-99.99,,2013-01-03 02:12:00,
2013-01-02 20:22:00,26.0,17.0,-100.00,SW,230,15.0,20.0,71,-99.99,,,-99.99,,2013-01-03 02:22:00,
2013-01-02 20:33:00,26.0,17.0,-100.00,SW,230,15.0,20.0,71,-99.99,,,-99.99,,2013-01-03 02:33:00,
2013-01-02 20:42:00,26.0,17.0,-100.00,SW,230,15.0,20.0,71,-99.99,,,-99.99,,2013-01-03 02:42:00,
2013-01-02 21:02:00,26.0,17.0,-100.00,SW,230,11.0,17.0,71,-99.99,,,-99.99,,2013-01-03 03:02:00,
2013-01-02 21:12:00,26.0,18.0,-100.00,SW,230,13.0,19.0,71,-99.99,,,-99.99,,2013-01-03 03:12:00,
2013-01-02 21:22:00,26.0,18.0,-100.00,SW,235,14.0,21.0,71,-99.99,,,-99.99,,2013-01-03 03:22:00,
2013-01-02 21:46:00,26.0,18.0,-100.00,WSW,250,13.0,20.0,72,-99.99,,,-99.99,,2013-01-03 03:46:00,
2013-01-02 21:53:00,26.0,19.0,-100.00,SW,235,14.0,19.0,73,-99.99,,,-99.99,,2013-01-03 03:53:00,
2013-01-02 22:02:00,26.0,19.0,-100.00,SW,235,14.0,19.0,73,-99.99,,,-99.99,,2013-01-03 04:02:00,
2013-01-02 22:12:00,27.0,19.0,-100.00,WSW,245,14.0,23.0,73,-99.99,,,-99.99,,2013-01-03 04:12:00,
2013-01-02 22:22:00,27.0,19.0,-100.00,WSW,245,16.0,21.0,73,-99.99,,,-99.99,,2013-01-03 04:22:00,
2013-01-02 22:32:00,27.0,19.0,-100.00,WSW,245,16.0,21.0,73,-99.99,,,-99.99,,2013-01-03 04:32:00,
2013-01-02 22:42:00,27.0,19.0,-100.00,WSW,245,16.0,21.0,73,-99.99,,,-99.99,,2013-01-03 04:42:00,
2013-01-02 22:52:00,26.0,19.0,-100.00,SW,235,14.0,19.0,75,-99.99,,,-99.99,,2013-01-03 04:52:00,
2013-01-02 23:03:00,26.0,19.0,-100.00,SW,235,14.0,19.0,75,-99.99,,,-99.99,,2013-01-03 05:03:00,
2013-01-02 23:12:00,26.0,19.0,-100.00,WSW,240,11.0,20.0,76,-99.99,,,-99.99,,2013-01-03 05:12:00,
2013-01-02 23:22:00,26.0,19.0,-100.00,WSW,240,11.0,19.0,77,-99.99,,,-99.99,,2013-01-03 05:22:00,
2013-01-02 23:33:00,26.0,20.0,-100.00,WSW,255,12.0,18.0,78,-99.99,,,-99.99,,2013-01-03 05:33:00,
2013-01-02 23:42:00,26.0,20.0,-100.00,WSW,255,12.0,18.0,78,-99.99,,,-99.99,,2013-01-03 05:42:00,
2013-01-02 23:53:00,26.0,20.0,-100.00,WSW,240,11.0,19.0,78,-99.99,,,-99.99,,2013-01-03 05:53:00,